Weather History for CYXU - December, 2012

Change the Weather History Date:

Sunday, December 9, 2012

  Actual Average Record
Temperature  
Mean Temperature 30 °F -  
Max Temperature 33 °F 35 °F 50 °F (1999)
Min Temperature 28 °F 24 °F 0 °F (2000)
Degree Days  
Heating Degree Days 34    
Moisture  
Dew Point 27 °F    
Average Humidity 86    
Maximum Humidity 100    
Minimum Humidity 64    
Precipitation  
Precipitation 0.00 in - - ()
Sea Level Pressure  
Sea Level Pressure 30.06 in    
Wind  
Wind Speed 11 mph ()    
Max Wind Speed 26 mph    
Max Gust Speed 33 mph    
Visibility 12.2 miles    
Events Rain    
Averages and records for this station are not official NWS values.
T = Trace of Precipitation, MM = Missing Value Source: Averaged Metar Reports

Daily Weather History Graph

Daily Weather History Graph

Search for Another Location

Airport or City:

Trip Planner

Search our weather history database for the weather conditions in past years. The results will help you decide how hot, cold, wet, or windy it might be!

Date:

Astronomy

Dec. 09, 2012 Rise Set
Actual Time 7:44 AM EST 4:49 PM EST
Civil Twilight 7:12 AM EST 5:21 PM EST
Nautical Twilight 6:36 AM EST 5:57 PM EST
Astronomical Twilight 6:02 AM EST 6:32 PM EST
Moon 3:10 AM EST (12/9) 1:59 PM EST (12/9)
Length of Visible Light 10h 09m
Length of Day
9h 05m
Waning Crescent, 19% of the Moon is Illuminated
Dec 9
Waning Crescent
Dec 13
New
Dec 20
First Quarter
Dec 28
Full
Jan 4
Last Quarter

Hourly Weather History & Observations

Time (EST) Temp. Windchill Dew Point Humidity Pressure Visibility Wind Dir Wind Speed Gust Speed Precip Events Conditions
12:00 AM 30.2 °F 24.3 °F 26.6 °F 86% 30.18 in 15.0 mi NNE 5.8 mph - N/A   Mostly Cloudy
1:00 AM 30 °F - 28 °F 86% 30.21 in 15 mi NNE 5.8 mph - -  
1:00 AM 30.2 °F 24.3 °F 28.4 °F 93% 30.21 in 15.0 mi NNE 5.8 mph - N/A   Mostly Cloudy
2:00 AM 30.2 °F - 26.6 °F 86% 30.23 in 15.0 mi NNE 2.3 mph - N/A   Mostly Cloudy
3:00 AM 30.2 °F 21.9 °F 24.8 °F 80% 30.24 in 15.0 mi NE 9.2 mph - N/A   Overcast
4:00 AM 28.4 °F 21.2 °F 24.8 °F 86% 30.24 in 15.0 mi NE 6.9 mph - N/A   Overcast
5:00 AM 30.2 °F 21.9 °F 24.8 °F 80% 30.22 in 15.0 mi ENE 9.2 mph - N/A   Overcast
6:00 AM 28.4 °F 19.7 °F 24.8 °F 86% 30.24 in 15.0 mi ESE 9.2 mph - N/A   Overcast
7:00 AM 29 °F - 25 °F 80% 30.25 in 15 mi East 11.5 mph - -   Overcast
7:00 AM 30.2 °F 20.8 °F 24.8 °F 80% 30.24 in 15.0 mi East 11.5 mph - N/A   Overcast
8:00 AM 28.4 °F 17.5 °F 24.8 °F 86% 30.26 in 15.0 mi East 13.8 mph 21.9 mph N/A   Overcast
9:00 AM 28.4 °F 18.0 °F 24.8 °F 86% 30.25 in 15.0 mi East 12.7 mph 19.6 mph N/A   Mostly Cloudy
10:00 AM 28.4 °F 17.5 °F 23.0 °F 80% 30.22 in 15.0 mi East 13.8 mph 20.7 mph N/A   Mostly Cloudy
11:00 AM 28.4 °F 15.4 °F 17.6 °F 64% 30.18 in 15.0 mi East 19.6 mph - N/A   Mostly Cloudy
12:00 PM 28.4 °F 16.6 °F 21.2 °F 74% 30.14 in 15.0 mi East 16.1 mph - N/A   Overcast
1:00 PM 30 °F - 22 °F 64% 30.11 in 15 mi East 13.8 mph - -   Overcast
1:00 PM 30.2 °F 20.2 °F 23.0 °F 75% 30.11 in 15.0 mi East 12.7 mph 19.6 mph N/A   Overcast
2:00 PM 30.2 °F 19.3 °F 24.8 °F 80% 30.06 in 15.0 mi ENE 15.0 mph - N/A   Overcast
2:21 PM 30.2 °F 18.9 °F 26.6 °F 86% 30.04 in 10.0 mi East 16.1 mph 24.2 mph N/A Rain Light Freezing Rain
3:00 PM 30.2 °F 18.1 °F 28.4 °F 93% 30.02 in 10.0 mi ENE 18.4 mph 25.3 mph N/A Rain Light Freezing Rain
4:00 PM 32.0 °F 19.8 °F 30.2 °F 93% 29.97 in 13.0 mi East 20.7 mph 27.6 mph N/A Rain Light Freezing Rain
4:46 PM 32.0 °F 19.5 °F 30.2 °F 93% 29.94 in 12.0 mi East 21.9 mph 28.8 mph N/A Rain Light Freezing Rain
5:00 PM 32.0 °F 18.4 °F 30.2 °F 93% 29.92 in 8.0 mi East 26.5 mph 32.2 mph N/A Rain Light Freezing Rain
5:11 PM 32.0 °F 18.6 °F 30.2 °F 93% 29.91 in 8.0 mi East 25.3 mph 33.4 mph N/A Rain Light Rain
6:00 PM 32.0 °F 19.5 °F 30.2 °F 93% 29.90 in 8.0 mi East 21.9 mph 33.4 mph N/A Rain Light Rain
7:00 PM 33 °F - 31 °F 90% 29.86 in 10 mi East 19.6 mph - -   Overcast
7:00 PM 32.0 °F 20.1 °F 32.0 °F 100% 29.86 in 10.0 mi ESE 19.6 mph 25.3 mph N/A Rain Light Rain
8:00 PM 33.8 °F 24.3 °F 32.0 °F 93% 29.83 in 12.0 mi ESE 13.8 mph 25.3 mph N/A Rain Light Rain
8:27 PM 32.0 °F 21.2 °F 32.0 °F 100% 29.81 in 8.0 mi ESE 16.1 mph 26.5 mph N/A Rain Light Rain
9:00 PM 33.8 °F 24.3 °F 32.0 °F 93% 29.78 in 8.0 mi East 13.8 mph - N/A Rain Light Rain
10:00 PM 33.8 °F 25.3 °F 32.0 °F 93% 29.76 in 2.0 mi East 11.5 mph - N/A Rain Light Rain
11:00 PM 33.8 °F 26.4 °F 33.8 °F 100% 29.73 in 1.0 mi East 9.2 mph - N/A Rain Light Rain